sat.trackr.live / text

‹ back to catalog

STARLINK-33991

NORAD 64122 · 2025-110AC

PAYLOAD ACTIVE UNKNOWN

§ Identity

Operator
Country
US
Launch date
2025-05-23
Launch site
AFWTR
Launch vehicle
Mass (kg)
RCS (m²)

Purposes: comms

External: N2YO · Heavens-Above · Gunter

§ Orbital elements

Epoch: 2026-05-25T01:35:49.360128Z

Period
94.01 min
Inclination
53.1603°
Eccentricity
0.0001217
Mean motion
15.31719583 rev/d
Perigee alt
469.8 km
Apogee alt
471.5 km
Semi-major
6,848.8 km
B*
3.5660e-4
RAAN
31.4636°
Arg perigee
94.7485°
Mean anomaly
265.3655°
Rev number
5,757

§ Raw data

STARLINK-339911 64122U 25110AC  26145.06654352  .00010723  00000+0  35660-3 0  99982 64122  53.1603  31.4636 0001217  94.7485 265.3655 15.31719583 57575

JSON: /api/v1/satellites/64122 · /tle

For live sub-satellite position, see the globe view (requires WebGL).

§ Visibility from observer

Set your observer location to see the next 7 days of passes ≥ 10°. The values pass through the URL so the page stays shareable.

No JS? Fill the form by hand. The geolocation button needs JavaScript.